Date String (YYYY-MM-DD hh:mm:ss) UTC,Instrument flags,Ambient pressure (hPa),Sample flow (lpm),Bypass flow (lpm),Sample temperature (°C),Ambient temperature (°C),ASC tube jacket temperature (°C),LED temperature (°C),Box temperature (°C),Sample RH (%),Span deviation,Mass concentration (μg/m³),Mass concentration (μg/m³),Mass concentration (μg/m³)
DateTimeUTC,F1_M11,P_M11,Q1_M11,Q2_M11,T1_M11,T2_M11,T3_M11,T4_M11,T5_M11,U1_M11,ZSPAN_M11,X0_M11,X2_M11,X1_M11
2021-12-30 21:00:00,,0804.9,4.99,0.00,22.2,22.1,00.0,31.2,24.0,07.1,0000.0,0017.14,0002.65,0000.50
2021-12-30 21:01:00,,0805.0,5.00,0.00,22.4,23.0,00.0,31.3,24.4,07.1,0000.0,0016.28,0002.51,0000.50
2021-12-30 21:02:00,,0804.8,5.00,0.00,22.5,23.2,00.0,31.3,24.5,07.2,0000.0,0015.62,0002.48,0000.51
2021-12-30 21:03:00,,0804.7,5.03,0.00,22.5,22.9,00.0,31.3,24.4,07.1,0000.0,0016.91,0002.42,0000.50
2021-12-30 21:04:00,,0804.9,5.00,0.00,22.5,22.5,00.0,31.3,24.3,07.1,0000.0,0018.38,0002.59,0000.50
2021-12-30 21:05:00,,0804.8,5.00,0.00,22.5,22.3,00.0,31.3,24.2,07.1,0000.0,0017.39,0002.31,0000.46
2021-12-30 21:06:00,,0805.2,5.00,0.00,22.5,22.0,00.0,31.3,24.2,07.2,0000.0,0018.36,0002.32,0000.46
2021-12-30 21:07:00,,0805.4,4.99,0.00,22.4,21.9,00.0,31.3,24.1,07.3,0000.0,0017.62,0002.34,0000.47
2021-12-30 21:08:00,,0805.1,5.01,0.00,22.4,21.8,00.0,31.3,24.1,07.4,0000.0,0017.35,0002.31,0000.46
2021-12-30 21:09:00,,0805.0,5.00,0.00,22.4,21.6,00.0,31.3,24.1,07.4,0000.0,0017.47,0002.39,0000.47
2021-12-30 21:10:00,,0805.0,4.99,0.00,22.4,21.5,00.0,31.3,24.0,07.3,0000.0,0018.61,0002.55,0000.47
2021-12-30 21:11:00,,0805.0,5.00,0.00,22.3,21.4,00.0,31.3,24.0,07.4,0000.0,0020.01,0002.75,0000.47
2021-12-30 21:12:00,,0805.2,5.01,0.00,22.3,21.3,00.0,31.3,23.9,07.4,0000.0,0019.17,0002.78,0000.46
2021-12-30 21:13:00,,0805.3,4.99,0.00,22.2,21.2,00.0,31.3,23.9,07.5,0000.0,0018.89,0002.88,0000.45
2021-12-30 21:14:00,,0805.3,4.99,0.00,22.2,21.2,00.0,31.3,23.8,07.4,0000.0,0015.07,0002.70,0000.44
2021-12-30 21:15:00,,0805.4,5.00,0.00,22.3,21.7,00.0,31.3,24.0,07.4,0000.0,0013.35,0002.44,0000.42
2021-12-30 21:16:00,,0805.5,5.00,0.00,22.4,22.7,00.0,31.3,24.3,07.4,0000.0,0013.89,0002.42,0000.42
2021-12-30 21:17:00,,0805.5,4.99,0.00,22.6,23.3,00.0,31.4,24.6,07.4,0000.0,0013.13,0002.39,0000.42
2021-12-30 21:18:00,,0805.6,5.00,0.00,22.6,23.2,00.0,31.4,24.6,07.3,0000.0,0014.42,0002.39,0000.40
2021-12-30 21:19:00,,0805.3,5.00,0.00,22.6,22.9,00.0,31.4,24.5,07.3,0000.0,0014.33,0002.42,0000.40
2021-12-30 21:20:00,,0805.7,5.00,0.00,22.6,22.6,00.0,31.4,24.4,07.3,0000.0,0014.08,0002.30,0000.39
2021-12-30 21:21:00,,0805.5,5.00,0.00,22.6,22.3,00.0,31.4,24.4,07.4,0000.0,0012.85,0002.19,0000.39
2021-12-30 21:22:00,,0805.7,5.00,0.00,22.6,22.1,00.0,31.5,24.3,07.2,0000.0,0011.38,0001.94,0000.36
2021-12-30 21:23:00,,0805.4,5.01,0.00,22.6,22.0,00.0,31.5,24.3,07.3,0000.0,0011.02,0001.77,0000.34
2021-12-30 21:24:00,,0805.4,5.00,0.00,22.6,21.8,00.0,31.5,24.2,07.3,0000.0,0010.53,0001.60,0000.34
2021-12-30 21:25:00,,0805.7,5.00,0.00,22.5,21.7,00.0,31.4,24.2,07.4,0000.0,0010.66,0001.61,0000.34
2021-12-30 21:26:00,,0805.6,5.00,0.00,22.5,21.6,00.0,31.4,24.2,07.4,0000.0,0011.24,0001.67,0000.33
2021-12-30 21:27:00,,0805.5,5.01,0.00,22.5,21.5,00.0,31.4,24.1,07.3,0000.0,0010.96,0001.66,0000.31
2021-12-30 21:28:00,,0805.6,5.00,0.00,22.4,21.5,00.0,31.4,24.1,07.4,0000.0,0011.04,0001.72,0000.31
2021-12-30 21:29:00,,0805.5,4.99,0.00,22.4,21.4,00.0,31.4,24.0,07.4,0000.0,0009.62,0001.67,0000.31
2021-12-30 21:30:00,,0805.4,5.01,0.00,22.4,21.3,00.0,31.4,24.0,07.5,0000.0,0009.37,0001.66,0000.30
2021-12-30 21:31:00,,0805.7,4.98,0.00,22.3,21.3,00.0,31.4,24.0,07.5,0000.0,0009.37,0001.71,0000.29
2021-12-30 21:32:00,,0805.7,5.01,0.00,22.3,21.2,00.0,31.4,24.0,07.4,0000.0,0009.87,0001.67,0000.26
2021-12-30 21:33:00,,0805.9,4.99,0.00,22.3,21.2,00.0,31.3,23.9,07.5,0000.0,0010.05,0001.62,0000.25
2021-12-30 21:34:00,,0806.0,5.00,0.00,22.3,21.2,00.0,31.3,23.9,07.5,0000.0,0009.82,0001.50,0000.24
2021-12-30 21:35:00,,0806.0,5.00,0.00,22.2,21.3,00.0,31.3,23.9,07.6,0000.0,0009.64,0001.39,0000.22
2021-12-30 21:36:00,,0806.3,5.00,0.00,22.3,21.9,00.0,31.3,24.1,07.6,0000.0,0008.32,0001.23,0000.21
2021-12-30 21:37:00,,0806.4,5.00,0.00,22.4,22.8,00.0,31.4,24.4,07.5,0000.0,0007.04,0001.10,0000.20
2021-12-30 21:38:00,,0806.4,4.99,0.00,22.6,23.3,00.0,31.4,24.6,07.5,0000.0,0005.51,0001.08,0000.20
2021-12-30 21:39:00,,0806.5,5.01,0.00,22.6,23.0,00.0,31.5,24.5,07.5,0000.0,0004.70,0001.01,0000.20
2021-12-30 21:40:00,,0806.8,4.99,0.00,22.6,22.7,00.0,31.5,24.4,07.6,0000.0,0005.81,0000.95,0000.19
2021-12-30 21:41:00,,0806.6,5.00,0.00,22.6,22.5,00.0,31.5,24.3,07.6,0000.0,0005.42,0000.86,0000.19
2021-12-30 21:42:00,,0806.6,5.00,0.00,22.6,22.3,00.0,31.5,24.3,07.5,0000.0,0005.04,0000.78,0000.19
2021-12-30 21:43:00,,0806.3,5.00,0.00,22.6,22.1,00.0,31.5,24.3,07.5,0000.0,0004.77,0000.75,0000.19
2021-12-30 21:44:00,,0806.6,4.99,0.00,22.6,22.0,00.0,31.5,24.2,07.4,0000.0,0005.08,0000.76,0000.19
2021-12-30 21:45:00,,0806.4,5.00,0.00,22.5,21.8,00.0,31.5,24.2,07.4,0000.0,0005.40,0000.83,0000.19
2021-12-30 21:46:00,,0806.5,5.00,0.00,22.5,21.7,00.0,31.5,24.2,07.5,0000.0,0005.72,0000.91,0000.20
2021-12-30 21:47:00,,0806.8,5.02,0.00,22.5,21.6,00.0,31.5,24.1,07.5,0000.0,0006.63,0000.97,0000.20
2021-12-30 21:48:00,,0806.9,4.99,0.00,22.5,21.6,00.0,31.4,24.1,07.5,0000.0,0006.56,0000.99,0000.21
2021-12-30 21:49:00,,0807.0,5.01,0.00,22.4,21.5,00.0,31.4,24.1,07.6,0000.0,0006.64,0000.97,0000.23
2021-12-30 21:50:00,,0806.7,4.99,0.00,22.4,21.5,00.0,31.4,24.0,07.6,0000.0,0006.79,0000.97,0000.22
2021-12-30 21:51:00,,0806.6,5.00,0.00,22.4,21.4,00.0,31.4,24.0,07.5,0000.0,0005.57,0000.98,0000.22
2021-12-30 21:52:00,,0806.5,5.00,0.00,22.4,21.4,00.0,31.4,24.0,07.5,0000.0,0005.57,0000.93,0000.21
2021-12-30 21:53:00,,0807.1,4.99,0.00,22.3,21.4,00.0,31.4,24.0,07.4,0000.0,0005.34,0000.92,0000.21
2021-12-30 21:54:00,,0807.2,5.00,0.00,22.3,21.3,00.0,31.4,24.0,07.4,0000.0,0005.40,0000.94,0000.21
2021-12-30 21:55:00,,0807.2,4.99,0.00,22.3,21.2,00.0,31.4,23.9,07.5,0000.0,0005.81,0000.95,0000.21
2021-12-30 21:56:00,,0807.3,5.00,0.00,22.2,21.2,00.0,31.3,23.9,07.6,0000.0,0005.61,0000.94,0000.23
2021-12-30 21:57:00,,0807.5,5.00,0.00,22.2,21.2,00.0,31.3,23.8,07.6,0000.0,0005.55,0000.93,0000.24
2021-12-30 21:58:00,,0807.2,4.99,0.00,22.2,21.2,00.0,31.3,23.8,07.6,0000.0,0005.51,0000.96,0000.28
2021-12-30 21:59:00,,0807.3,4.99,0.00,22.2,21.3,00.0,31.3,23.8,07.5,0000.0,0006.62,0000.95,0000.29
